Location: Unspecified
(0.0000°N, 0.0000°E)
Time: 17:39:41
(UTC+00:00)

Explorer 11/Cluster Stage 4 - Pass Details

Date: 13 December 2018
Orbit: 467 x 1260 km, 28.8° (Epoch: 17 June)

Event Time Altitude Azimuth Distance (km) Brightness Sun altitude
Rises 18:35:18 0° 212° (SSW) 4,192 11.3 -9.4°
Reaches altitude 10° 18:40:59 10° 182° (S) 3,140 10.0 -10.7°
Maximum altitude 18:43:26 12° 163° (SSE) 2,962 9.6 -11.3°
Drops below altitude 10° 18:45:49 10° 145° (SE) 3,013 9.4 -11.8°
Enters shadow 18:50:34 - 115° (ESE) 3,710 9.7 -12.9°
